Location: Stone Trail Observatory
(44.2408°N, 105.6081°W)
Time: 13:29:47
(UTC-06:00)

Iridium 6 - Visible Passes

Search period start: 21 September 2017 00:00
Search period end: 01 October 2017 00:00
Orbit: 776 x 779 km, 86.4° (Epoch: 20 September)

Date Brightness Start Highest point End Pass type
(mag) Time Alt. Az. Time Alt. Az. Time Alt. Az.
21 Sep 5.5 19:37:07 10° S 19:42:20 85° E 19:47:35 10° N visible
21 Sep 8.7 21:21:37 10° W 21:23:47 12° WNW 21:25:58 10° NW visible
22 Sep 8.3 06:05:58 10° NNE 06:10:12 24° ENE 06:14:25 10° SE visible
22 Sep 8.1 20:45:53 10° SW 20:49:52 22° WNW 20:53:53 10° NNW visible
23 Sep 8.8 05:33:37 10° NE 05:36:18 14° ENE 05:39:00 10° ESE visible
23 Sep 7.1 20:11:16 10° SSW 20:16:05 38° W 20:20:58 10° NNW visible
24 Sep 6.0 19:37:16 10° S 19:42:27 68° W 19:47:40 10° N visible
25 Sep 7.5 06:05:43 10° NNE 06:10:27 34° E 06:15:10 10° SE visible
25 Sep 8.6 20:47:05 10° WSW 20:50:12 16° WNW 20:53:19 10° NW visible
26 Sep 8.5 05:32:53 10° NNE 05:36:39 20° ENE 05:40:24 10° ESE visible
26 Sep 7.8 20:11:56 10° SW 20:16:20 27° WNW 20:20:45 10° NNW visible
27 Sep 9.0 05:01:17 10° NE 05:02:42 11° ENE 05:04:06 10° E visible
27 Sep 6.7 19:37:35 10° SSW 19:42:37 48° W 19:47:40 10° N visible
28 Sep 6.7 06:05:36 10° N 06:10:39 48° E 06:15:41 10° SSE visible
28 Sep 9.0 20:49:12 10° W 20:50:34 11° WNW 20:51:56 10° NW visible
29 Sep 7.8 05:32:30 10° NNE 05:36:57 27° ENE 05:41:21 10° SE visible
29 Sep 8.4 20:12:53 10° WSW 20:16:37 20° WNW 20:20:23 10° NNW visible
30 Sep 8.6 04:59:57 10° NE 05:03:05 16° ENE 05:06:12 10° ESE visible
30 Sep 7.5 19:38:07 10° SW 19:42:49 34° W 19:47:33 10° NNW visible
